Location: ??????
(38.0131°N, 23.7723°E)
Time: 05:45:19
(UTC+00:00)

SKYMED 2 - Pass Details

Date: 17 October 2021
Orbit: 621 x 623 km, 97.9° (Epoch: 28 November)

Event Time Altitude Azimuth Distance (km) Brightness Sun altitude
Rises 16:33:19 0° 11° (N) 2,910 6.9 -10.4°
Reaches altitude 10° 16:35:31 10° 10° (N) 1,999 6.0 -10.8°
Maximum altitude 16:39:52 81° 285° (WNW) 635 3.7 -11.7°
Drops below altitude 10° 16:44:11 10° 197° (SSW) 1,984 6.4 -12.5°
Sets 16:46:21 0° 196° (SSW) 2,885 7.2 -12.9°
